This demonstration page uses our WeatherBlox Daily Observations layout. Learn more.

Left ArrowRight Arrow

39.08367, -84.50855

Hourly Observations for August 8, 2022

Temp ( °F °C ) Dew Point ( °F °C ) Humidity (%) Winds ( mph kmh ) Pressure ( in mb ) Visibility ( mi km ) Precip ( " mm )
12:53 am 00:53 Clear 73 22.8 70 21.1 90 90 S 3 6 30.09 1019 10 16 0.00 0.00
1:53 am 01:53 Clear 72 22.2 70 21.1 94 94 SSW 3 6 30.09 1019 10 16 0.00 0.00
2:53 am 02:53 Clear 73 22.8 70 21.1 90 90 Calm 30.07 1018 10 16 0.00 0.00
3:53 am 03:53 Clear 71 21.7 70 21.1 96 96 Calm 30.06 1018 9 14 0.00 0.00
4:53 am 04:53 Clear 69 20.6 69 20.6 100 100 SSW 3 6 30.06 1018 9 14 0.00 0.00
5:53 am 05:53 Clear 71 21.7 70 21.1 96 96 Calm 30.07 1018 10 16 0.00 0.00
6:53 am 06:53 Mostly Sunny 71 21.7 69 20.6 94 94 Calm 30.06 1018 9 14 0.00 0.00
7:53 am 07:53 Sunny 73 22.8 70 21.1 90 90 Calm 30.08 1019 9 14 0.00 0.00
8:53 am 08:53 Sunny 75 23.9 71 21.7 88 88 S 6 9 30.08 1019 10 16 0.00 0.00
9:53 am 09:53 Sunny 81 27.2 73 22.8 77 77 S 7 11 30.06 1018 10 16 0.00 0.00
10:53 am 10:53 Partly Cloudy 84 28.9 74 23.3 72 72 WSW 8 13 30.06 1018 10 16 0.00 0.00
11:53 am 11:53 Mostly Cloudy 86 30 75 23.9 70 70 WSW 14 22 30.06 1018 10 16 0.00 0.00
12:53 pm 12:53 Partly Cloudy 87 30.6 74 23.3 65 65 SSW 12 19 30.04 1017 10 16 0.00 0.00
1:53 pm 13:53 Mostly Cloudy 89 31.7 73 22.8 59 59 SW 10 17 30.03 1017 10 16 0.00 0.00
2:53 pm 14:53 Partly Cloudy 89 31.7 73 22.8 59 59 SW 15 24 30.01 1016 10 16 0.00 0.00
3:53 pm 15:53 Partly Cloudy 91 32.8 73 22.8 56 56 SW 17 28 29.98 1015 10 16 0.00 0.00
4:53 pm 16:53 Partly Cloudy 90 32.2 73 22.8 58 58 SW 15 24 29.96 1015 10 16 0.00 0.00
5:53 pm 17:53 Partly Cloudy 89 31.7 73 22.8 59 59 SW 14 22 29.94 1014 10 16 0.00 0.00
6:53 pm 18:53 Sunny 87 30.6 73 22.8 63 63 SW 12 19 29.93 1014 10 16 0.00 0.00
7:53 pm 19:53 Sunny 85 29.4 74 23.3 70 70 SSW 9 15 29.93 1014 10 16 0.00 0.00
8:53 pm 20:53 Clear 81 27.2 75 23.9 82 82 S 3 6 29.94 1014 10 16 0.00 0.00
9:53 pm 21:53 Clear 78 25.6 75 23.9 90 90 S 6 9 29.96 1015 10 16 0.00 0.00
10:53 pm 22:53 Clear 78 25.6 75 23.9 90 90 Calm 29.98 1015 10 16 0.00 0.00
11:53 pm 23:53 Clear 77 25 74 23.3 90 90 SW 5 7 29.99 1016 9 14 0.00 0.00

Powered by AerisWeather